www.pogodaiklimat.ru
Время
(UTC), дата
22 12.11
23 12.11
00 13.11
01 13.11
02 13.11
03 13.11
04 13.11
05 13.11
06 13.11
07 13.11
08 13.11
09 13.11
10 13.11
11 13.11
12 13.11
13 13.11
14 13.11
15 13.11
16 13.11
17 13.11
18 13.11
19 13.11
20 13.11
21 13.11
00 14.11
01 14.11
02 14.11
03 14.11
04 14.11
05 14.11
06 14.11
07 14.11
08 14.11
09 14.11
10 14.11
11 14.11
12 14.11
13 14.11
14 14.11
15 14.11
16 14.11
17 14.11
18 14.11
19 14.11
20 14.11
21 14.11
22 14.11
23 14.11
00 15.11
01 15.11
02 15.11
03 15.11
04 15.11
05 15.11
06 15.11
07 15.11
08 15.11
09 15.11
10 15.11
11 15.11
12 15.11
13 15.11
14 15.11
15 15.11
16 15.11
17 15.11
18 15.11
19 15.11
20 15.11
21 15.11
22 15.11
23 15.11
00 16.11
01 16.11
02 16.11
03 16.11
04 16.11
05 16.11
06 16.11
07 16.11
08 16.11
09 16.11
10 16.11
11 16.11
12 16.11
13 16.11
14 16.11
15 16.11
16 16.11
17 16.11
18 16.11
19 16.11
20 16.11
21 16.11
22 16.11
23 16.11
00 17.11
01 17.11
02 17.11
03 17.11
04 17.11
05 17.11
06 17.11
07 17.11
08 17.11
09 17.11
10 17.11
11 17.11
12 17.11
13 17.11
14 17.11
15 17.11
16 17.11
17 17.11
18 17.11
19 17.11
20 17.11
21 17.11
22 17.11
23 17.11
00 18.11
01 18.11
02 18.11
03 18.11
04 18.11
05 18.11
06 18.11
07 18.11
08 18.11
09 18.11
10 18.11
11 18.11
12 18.11
13 18.11
14 18.11
15 18.11
16 18.11
17 18.11
18 18.11
19 18.11
20 18.11
21 18.11
22 18.11
23 18.11
00 19.11
01 19.11
02 19.11
03 19.11
04 19.11
05 19.11
06 19.11
07 19.11
08 19.11
09 19.11
10 19.11
11 19.11
12 19.11
13 19.11
14 19.11
15 19.11
16 19.11
17 19.11
18 19.11
19 19.11
20 19.11
21 19.11
Ветер
(напр.,м/с)
Видим. Явления Облачность Т
(С)
Тd
(С)
f
(%)
Тe
(С)
Тes
(С)
Комфортность P
(гПа)
Po
(гПа)
Тmin
(С)
Tmax
(С)
R
(мм)
R24
(мм)
S
(см)
ЮЗ 8
{12}
35 км 9/9 600 м
[Sc Ac trans]
+5.2 +2.1 80 -1 -1 по сезону 999.9 993.2
ЮЗ 8
{11}
35 км в посл. час дождь 9/9 300 м
[Sc Ac trans]
+4.9 +3.0 87 -1 -1 тепло 999.2 992.5
ЮЗ 7
{12}
35 км {дождь} 8/6 420 м
[Sc Ac trans]
+4.6 +3.0 89 -1 -1 прохладно 999.2 992.5
ЮЗ 6
{10}
9000 м слаб. дождь 9/9 180 м
[Sc]
+4.8 +2.3 84 -0 -0 по сезону 999.3 992.4
ЮЗ 5
{9}
15 км в посл. час дождь 9/9 180 м
[Sc]
+5.0 +4.4 96 0 0 по сезону 999.3 992.7
ЮЗ 6
{10}
15 км {дождь} 9/9 270 м
[Sc]
+5.2 +4.1 93 0 0 прохладно 999.4 992.7
ЮЗ 5
{8}
12 км слаб. дождь 9/9 210 м
[Sc]
+5.3 +4.1 92 +1 +1 по сезону 999.7 993.0
ЮЗ 6
{7}
12 км слаб. дождь 9/9 210 м
[Sc]
+5.5 +4.5 93 0 0 по сезону 1000.1 993.4
ЮЗ 6
{10}
12 км в посл. час дождь 8/8 300 м
[Sc]
+5.7 +4.5 92 +1 +1 по сезону 1000.3 993.6 +4.1 0.6
ЮЗ 5
{10}
25 км в посл. час дождь 3/3 240 м
[Sc Ac trans]
+5.5 +4.5 93 +1 +1 по сезону 1000.5 993.8
ЮЗ 4
{9}
25 км в посл. час ливневой дождь 8/8 600 м
[Cu Sc]
+5.9 +4.7 92 +2 +2 тепло 1001.1 994.4
ЮЗ 5
{10}
40 км {ливн. осадки, дождь} 9/9 300 м
[Cu Sc]
+6.7 +5.0 89 +2 +2 прохладно 1001.5 994.8
ЮЗ 4
{8}
30 км слаб. ливневой дождь 9/9 330 м
[Cu Sc]
+6.9 +5.3 90 +3 +3 по сезону 1002.0 995.3
ЮЗ 4
{6}
30 км в посл. час ливневой дождь 9/9 360 м
[Cu Sc]
+7.5 +5.9 90 +4 +4 тепло 1002.0 995.3
ЮЗ 5
{10}
35 км {ливн. осадки, дождь} 9/9 420 м
[Cu Sc]
+7.8 +5.3 84 +4 +4 прохладно 1001.9 995.2 0.4
ЮЗ 5
{7}
35 км 8/6 500 м
[Cu Sc Ac trans Ci sp]
+8.2 +5.4 82 +5 +5 по сезону 1001.5 994.9
ЮЗ 4
{7}
45 км 9/9 540 м
[Cu Sc Ac trans Ci fib]
+8.5 +5.0 79 +5 +6 тепло 1001.5 994.9
ЮЗ 4
{7}
45 км в посл. час ливневой дождь 8/1 630 м
[Cu Sc Ac trans Ci sp]
+8.2 +4.3 76 +5 +5 по сезону 1001.2 994.5
Ю 3
{7}
45 км 8/1 630 м
[Cu med, cong Ac trans Ci sp]
+7.2 +4.2 81 +4 +4 по сезону 1001.2 994.5
Ю 3
{5}
45 км 9/6 1500 м
[Sc Ac trans]
+6.7 +4.7 87 +4 +4 тепло 1001.2 994.6
ЮЗ 4
{7}
4000 м дождь {ливн. осадки} 10/9 270 м
[Sc]
+6.7 +4.8 88 +3 +3 по сезону 1001.4 994.7 +8.7 0.4
Ю 3
{7}
50 км 8/1 800 м
[Cu med, cong Ac As Ci fib]
+6.0 +4.7 91 +3 +3 по сезону 1000.7 994.0
Ю 4
{6}
50 км 6/6 800 м
[Cu Sc Ci fib]
+5.9 +4.5 91 +2 +2 по сезону 1000.3 993.6
Ю 5
{7}
50 км 8/5 1080 м
[Sc As trans]
+5.8 +4.3 90 +1 +1 прохладно 1000.0 993.3
Ю 4
{8}
50 км {дождь} 1/0
[Ci fib]
+5.4 +3.7 89 +1 +1 прохладно 998.6 991.9 0.0
ЮВ 4
{6}
50 км 1/0
[Ci fib]
+5.3 +3.6 89 +1 +1 по сезону 998.3 991.6
ЮВ 3
{6}
50 км 1/1 720 м
[Sc Ci fib]
+4.8 +3.3 90 +1 +1 по сезону 997.8 991.1
ЮВ 4
{7}
50 км 8/0
[Ci fib]
+4.7 +3.3 91 0 0 прохладно 997.0 990.3
ЮВ 5
{8}
50 км 9/0
[Ac trans Ci fib]
+5.2 +3.3 88 +1 +1 по сезону 996.4 989.7
ЮВ 6
{9}
50 км 9/0
[Ac As]
+5.6 +3.1 84 +1 +1 тепло 996.4 989.8
ЮВ 6
{9}
50 км {дождь} 10/5 1500 м
[Sc Ac As]
+5.8 +2.7 80 +1 +1 по сезону 997.0 990.3 +4.4 0.0
ЮВ 7
{10}
50 км 9/8 1110 м
[Sc Ac trans]
+5.9 +2.6 79 +1 +1 по сезону 997.5 990.8
ЮВ 5
{10}
14 км слаб. дождь 9/3 270 м
[Frnb As op]
+5.6 +1.7 76 +1 +1 тепло 998.3 991.7
ЮВ 4
{10}
50 км в посл. час дождь 10/9 630 м
[Sc]
+5.6 +3.3 85 +2 +2 прохладно 999.0 992.3
ЮВ 5
{9}
15 км слаб. дождь 10/9 300 м
[Sc]
+5.1 +3.6 90 0 0 по сезону 1000.0 993.3
Ю 5
{8}
50 км в посл. час дождь 9/6 500 м
[Sc Ac trans]
+5.6 +3.8 88 +1 +1 по сезону 1000.4 993.7
Ю 5
{10}
50 км {дождь} 8/3 420 м
[Sc Ci sp]
+5.9 +3.2 83 +2 +2 прохладно 1000.5 993.8 0.5
ЮВ 3
{7}
50 км 9/8 600 м
[Sc]
+6.5 +3.3 80 +3 +4 по сезону 1000.5 993.9
ЮВ 4
{6}
50 км 9/9 570 м
[Sc]
+6.2 +3.0 80 +2 +3 по сезону 1001.0 994.3
ЮВ 3
{7}
50 км 9/9 570 м
[Sc]
+6.2 +3.2 81 +3 +3 прохладно 1001.6 994.9
ЮВ 3
{5}
50 км 9/8 1000 м
[Sc Ac trans Ci sp]
+5.8 +3.0 82 +3 +3 по сезону 1001.6 994.9
ЮВ 1
{4}
50 км 9/3 1050 м
[Sc Ac As]
+5.0 +2.9 86 +4 +4 тепло 1002.6 995.9
В 2
{8}
50 км 9/0
[Ac trans]
+5.0 +2.9 86 +2 +2 прохладно 1002.5 995.7 +6.8 0.5
В 1
{3}
50 км 9/0 2000 м
[Ac As]
+5.1 +3.3 88 +4 +4 по сезону 1003.2 996.4
СВ 2
{3}
50 км осадки на расстоянии 9/9 1380 м
[Sc]
+4.5 +3.0 90 +2 +2 по сезону 1002.9 996.1
В 1
{3}
50 км 9/4 1500 м
[Sc Ac As]
+4.4 +3.1 91 +3 +3 по сезону 1002.9 996.2
В 1
{2}
50 км 9/5 1500 м
[Sc Ac As]
+4.2 +2.9 91 +3 +3 по сезону 1002.9 996.2
С 1
{1}
50 км 9/0
[Ac As]
+3.7 +2.7 93 +2 +2 тепло 1002.5 995.8
С 1
{3}
50 км 9/5 960 м
[Sc Ac As]
+3.9 +2.9 93 +2 +2 по сезону 1002.3 995.6
С 1
{2}
50 км 9/0
[Ac As]
+3.0 +2.3 95 +1 +1 по сезону 1001.8 995.0
СВ 2
{3}
50 км 9/0
[Ac As]
+2.7 +2.1 96 -1 -1 по сезону 1001.4 994.6
С 3
{5}
50 км 9/0
[Ac As]
+2.9 +2.1 94 -1 -1 прохладно 1000.3 993.5
С 3
{5}
50 км 10/0
[Ac As]
+2.5 +1.8 95 -2 -2 по сезону 999.3 992.5
СВ 3
{6}
13 км 10/5 180 м
[St Ac As]
+2.5 +1.6 94 -2 -2 по сезону 999.7 993.0
СВ 3
{6}
7000 м 10/9 180 м
[St]
+2.5 +1.5 93 -2 -2 прохладно 999.1 992.3 +2.4
СВ 3
{6}
6000 м в посл. час морось 10/9 180 м
[Frnb]
+2.4 +1.3 92 -2 -2 по сезону 998.9 992.2
СВ 4
{7}
4500 м дымка 10/9 240 м
[Frnb]
+2.5 +1.2 91 -2 -2 по сезону 1000.2 993.4
С 4
{7}
4200 м дымка 10/10 240 м
[St]
+2.6 +1.3 91 -2 -2 холодно 999.9 993.1
СВ 5
{7}
4500 м дымка 10/10 240 м
[St]
+2.8 +1.4 90 -3 -3 прохладно 999.4 992.6
СВ 5
{8}
4800 м дымка 10/9 270 м
[St]
+3.2 +1.5 89 -2 -2 по сезону 999.4 992.6
В 3
{8}
5000 м дымка 10/10 300 м
[St]
+3.6 +1.5 86 -0 -0 холодно 999.7 992.9 0.0
В 3
{5}
6000 м 10/9 330 м
[St]
+3.9 +1.5 84 0 0 прохладно 999.6 992.8
В 3
{6}
6000 м 10/9 360 м
[Sc]
+4.5 +2.0 84 +1 +1 по сезону 999.9 993.1
В 2
{6}
6000 м 10/9 420 м
[Sc]
+4.5 +2.2 85 +2 +2 прохладно 1000.0 993.2
В 3
{5}
7000 м 10/9 660 м
[Sc]
+4.6 +2.2 84 +1 +1 по сезону 1000.4 993.7
ЮВ 3
{4}
5000 м 10/9 600 м
[Sc]
+4.9 +2.6 85 +1 +1 по сезону 1001.2 994.5
ЮВ 2
{6}
12 км 9/9 900 м
[Sc]
+5.1 +2.5 83 +3 +3 по сезону 1001.6 994.9 +5.2 0.0
Ю 5
{8}
15 км 9/9 800 м
[Sc]
+5.5 +1.9 78 +1 +1 по сезону 1002.6 995.8
Ю 2
{8}
15 км 4/4 870 м
[Sc]
+4.0 +0.9 80 +1 +1 по сезону 1002.9 996.1
В 2
{8}
20 км 1/0
[Ci fib]
+3.2 +0.9 85 0 0 прохладно 1003.3 996.5
В 2
{3}
20 км 1/0
[Ci fib]
+2.5 +0.7 88 -1 -1 по сезону 1003.9 997.1
ЮВ 2
{3}
20 км 4/0
[Ci fib]
+2.0 +0.3 88 -1 -1 по сезону 1004.4 997.6
ЮВ 3
{8}
20 км 3/0
[Ci fib]
+2.3 +0.6 89 -2 -2 прохладно 1005.0 998.1
ЮВ 3
{4}
20 км 5/0
[Ci fib]
+2.2 +0.3 87 -2 -2 по сезону 1004.9 998.1
ЮВ 2
{4}
20 км 6/0
[Ci fib]
+1.9 +0.2 88 -1 -1 по сезону 1005.4 998.5
ЮВ 2
{4}
20 км 4/0
[Ci fib]
+2.0 +0.1 87 -1 -1 прохладно 1005.4 998.6
Ю 3
{5}
20 км 1/1 900 м
[Sc]
+1.8 +0.1 88 -3 -3 по сезону 1005.4 998.6
ЮВ 3
{4}
20 км 1/0
[Ci fib]
+1.5 0.0 90 -3 -3 по сезону 1005.5 998.7
Ю 3
{5}
20 км 1/0
[Ci fib]
+1.4 -0.2 89 -3 -3 холодно 1006.1 999.2 +1.3
Ю 2
{3}
12 км 4/0
[Ci sp]
+1.4 -0.3 88 -2 -2 по сезону 1006.7 999.9
Ю 3
{4}
12 км 4/0
[Ac und Ci]
+1.2 -0.4 89 -3 -3 по сезону 1007.5 1000.7
Ю 1
{4}
12 км 5/0
[Ac trans Ci]
+3.1 +1.0 86 +2 +2 по сезону 1008.0 1001.2
Ю 4
{5}
15 км 6/0
[Ac As Ci]
+4.2 +1.5 83 -0 +1 по сезону 1008.3 1001.5
ЮВ 3
{5}
15 км 8/1 840 м
[Cu hum Ac trans Ci]
+5.2 +2.2 81 +2 +3 тепло 1008.5 1001.7
Ю 4
{6}
15 км 6/1 1260 м
[Cu hum Ac trans Ci]
+5.9 +2.3 78 +2 +3 прохладно 1008.2 1001.5
Ю 4
{6}
15 км 8/0
[Ac und Ci sp]
+6.3 +2.5 77 +3 +3 по сезону 1008.5 1001.7
Ю 3
{7}
15 км 9/1 1500 м
[Sc Ac und Ci]
+5.8 +2.6 80 +3 +3 тепло 1008.3 1001.6
Ю 2
{7}
15 км 9/1 1500 м
[Sc Ac trans Ci sp]
+5.9 +2.7 80 +4 +4 по сезону 1008.3 1001.6
Ю 2
{3}
15 км 9/8 840 м
[Sc Ac As]
+5.5 +1.8 77 +3 +3 по сезону 1009.0 1002.2
Ю 2
{3}
15 км 10/9 720 м
[Sc]
+5.8 +2.1 77 +3 +3 тепло 1009.4 1002.6
Ю 1
{7}
15 км 9/9 700 м
[Sc]
+5.3 +3.3 87 +4 +4 по сезону 1010.1 1003.3 +6.5
ЮЗ 1
{2}
15 км 9/9 660 м
[Sc]
+5.3 +3.2 86 +4 +4 по сезону 1010.8 1004.0
Ю 1
{2}
15 км 8/8 870 м
[Sc]
+5.5 +2.9 83 +4 +4 тепло 1010.9 1004.2
ЮВ 1
{2}
15 км 9/9 1320 м
[Sc]
+4.9 +3.4 90 +4 +4 по сезону 1011.1 1004.4
ЮВ 2
{2}
15 км 9/9 900 м
[Sc]
+5.1 +3.0 86 +2 +2 по сезону 1011.2 1004.4
Ю 2
{3}
15 км 9/9 1200 м
[Sc]
+5.3 +2.9 84 +3 +3 тепло 1011.1 1004.3
ЮВ 3
{4}
15 км 5/5 1140 м
[Sc]
+5.2 +2.7 84 +2 +2 по сезону 1011.4 1004.6
Ю 2
{4}
15 км 5/5 1140 м
[Sc Ci fib]
+3.9 +2.5 91 +1 +1 по сезону 1011.2 1004.4
Ю 2
{3}
15 км 1/0
[Ci fib]
+3.4 +1.9 90 0 0 тепло 1011.6 1004.7
ЮВ 2
{4}
15 км 1/0
[Ci fib]
+2.3 +1.3 93 -1 -1 прохладно 1011.4 1004.6
Ю 2
{3}
10 км 1/0
[Ci fib]
+2.0 +0.8 92 -1 -1 по сезону 1011.0 1004.1
штиль 0
{2}
10 км 1/0
[Ci fib]
+0.7 0.0 95 -1 -1 тепло 1011.1 1004.2
ЮВ 1
{4}
10 км 4/0
[Ci fib]
-0.2 -0.8 96 -2 -2 прохладно 1011.6 1004.6 -0.2
ЮВ 2
{2}
8000 м 4/0
[Ci]
+0.1 -0.7 94 -4 -4 по сезону 1012.1 1005.2
ЮВ 1
{3}
10 км 5/0 2000 м
[Ac trans Ci sp]
+0.3 -0.4 95 -2 -2 по сезону 1012.1 1005.2
СЗ 1
{3}
10 км 5/0 2000 м
[Ac trans Ci sp]
+1.6 +0.7 94 -0 0 прохладно 1011.9 1005.0
СВ 1
{2}
10 км 4/0
[Ci fib]
+3.0 +1.3 89 +1 +3 по сезону 1011.8 1004.9
СВ 1
{2}
12 км 4/0
[Ci fib]
+5.3 +3.0 85 +4 +6 тепло 1011.6 1004.8
СВ 2
{3}
12 км 4/0
[Ac trans Ci fib]
+6.1 +2.8 79 +4 +6 по сезону 1011.3 1004.5
С 2
{3}
12 км 4/0
[Ac trans Ci fib]
+7.0 +2.8 75 +5 +7 тепло 1011.2 1004.4
СВ 2
{4}
12 км 8/0
[Ac und Ci]
+6.8 +3.1 77 +5 +5 тепло 1011.1 1004.4
С 2
{4}
12 км 9/1 1500 м
[Sc diur, vesp Ac trans Ci sp]
+6.0 +3.3 83 +4 +4 по сезону 1011.0 1004.2
С 2
{4}
12 км 9/0
[Ac As Ci sp]
+5.9 +2.9 81 +4 +4 по сезону 1010.5 1003.8
С 2
{5}
12 км 9/0
[Ac As Ci sp]
+5.0 +3.0 87 +2 +2 тепло 1010.8 1004.0
С 3
{5}
12 км 10/0
[As op]
+4.9 +2.9 87 +1 +1 по сезону 1010.4 1003.6 +7.0
С 2
{5}
12 км 9/0
[As op]
+4.7 +2.9 88 +2 +2 по сезону 1010.6 1003.8
С 2
{4}
12 км 9/0
[As op]
+4.2 +2.6 89 +1 +1 тепло 1010.0 1003.3
С 3
{5}
12 км 9/0
[As op]
+4.4 +2.9 90 +1 +1 по сезону 1010.2 1003.4
С 2
{4}
12 км 9/0
[As op]
+4.2 +2.5 89 +1 +1 по сезону 1009.9 1003.1
С 2
{3}
12 км 9/0
[Ac As]
+3.9 +2.3 89 +1 +1 тепло 1009.7 1002.9
С 2
{5}
12 км 9/0
[Ac As]
+3.8 +2.0 88 +1 +1 по сезону 1009.8 1003.0
С 2
{3}
10 км 9/9 540 м
[Sc]
+3.8 +2.0 88 +1 +1 по сезону 1009.7 1002.9
СЗ 2
{3}
10 км 9/9 720 м
[Sc]
+4.0 +2.2 88 +1 +1 тепло 1009.6 1002.8
СЗ 2
{3}
10 км 9/9 800 м
[Sc]
+3.7 +2.4 91 +1 +1 по сезону 1009.6 1002.8
СЗ 3
{4}
10 км слаб. дождь 9/9 2000 м
[Sc]
+3.8 +2.3 90 -0 -0 по сезону 1009.1 1002.3
СЗ 2
{4}
10 км в посл. час дождь 9/9 1500 м
[Sc]
+3.8 +2.3 90 +1 +1 тепло 1009.0 1002.2
З 4
{5}
15 км {дождь} 9/9 2000 м
[Sc]
+3.9 +2.3 89 -1 -1 по сезону 1009.1 1002.3 +3.7 0.1
СЗ 3
{5}
8000 м 10/10 540 м
[Sc]
+4.1 +2.5 89 0 0 по сезону 1009.8 1003.0
СЗ 4
{5}
8000 м 10/10 540 м
[Sc]
+4.2 +2.2 87 -0 -0 тепло 1010.0 1003.2
СЗ 4
{6}
9000 м слаб. дождь 10/10 600 м
[Sc]
+4.5 +2.7 88 0 0 по сезону 1009.8 1003.1
СЗ 4
{6}
10 км слаб. дождь 10/10 800 м
[Sc]
+4.9 +2.7 86 +1 +1 по сезону 1009.9 1003.1
З 4
{7}
7000 м слаб. дождь 10/10 360 м
[Sc]
+4.9 +2.8 86 +1 +1 тепло 1009.8 1003.0
З 4
{7}
9000 м слаб. дождь 10/10 270 м
[Sc]
+5.1 +3.2 88 +1 +1 по сезону 1009.6 1002.9 0.4
З 3
{5}
4500 м слаб. дождь {морось} 10/10 270 м
[Sc]
+5.0 +3.8 92 +1 +1 по сезону 1009.7 1003.0
ЮЗ 2
{4}
3500 м слаб. дождь 10/10 210 м
[Sc]
+5.2 +4.4 95 +2 +2 тепло 1009.5 1002.7
ЮЗ 2
{5}
2500 м слаб. дождь {морось} 10/10 210 м
[Sc]
+5.7 +5.1 96 +3 +3 по сезону 1009.6 1002.8
З 4
{6}
2500 м слаб. дождь {морось} 10/10 180 м
[Sc]
+6.5 +5.8 95 +3 +3 по сезону 1009.8 1003.0
СЗ 5
{9}
8000 м слаб. дождь 9/9 180 м
[Frnb]
+7.4 +6.4 93 +3 +3 тепло 1010.2 1003.4
СЗ 7
{10}
6000 м слаб. дождь {морось} 10/10 180 м
[Sc]
+7.3 +6.0 91 +2 +2 по сезону 1010.4 1003.7 +7.5 3
СЗ 6
{11}
16 км слаб. дождь {морось} 10/9 300 м
[Sc]
+7.3 +6.1 92 +3 +3 тепло 1011.1 1004.4
СЗ 4
{10}
16 км в посл. час дождь 9/9 1110 м
[Sc]
+7.0 +5.4 90 +3 +3 тепло 1011.9 1005.2
СЗ 6
{11}
40 км слаб. дождь {морось} 10/9 270 м
[Sc]
+6.7 +4.4 85 +2 +2 по сезону 1012.8 1006.0
З 4
{8}
35 км в посл. час дождь 10/9 840 м
[Sc]
+6.6 +4.5 86 +3 +3 тепло 1013.4 1006.7
З 4
{6}
30 км 9/9 2000 м
[Sc]
+5.9 +3.5 85 +2 +2 тепло 1013.9 1007.1
З 4
{11}
30 км {дождь, морось} 9/9 1500 м
[Sc]
+5.3 +2.8 84 +1 +1 по сезону 1014.3 1007.5 0.6
З 5
{6}
50 км 9/9 930 м
[Sc]
+5.2 +2.3 82 +1 +1 по сезону 1014.7 1007.9
З 4
{7}
50 км 9/8 930 м
[Sc Ac trans]
+4.5 +2.2 85 0 0 тепло 1015.1 1008.3
З 4
{7}
50 км 9/9 1110 м
[Sc]
+4.7 +2.3 84 +1 +1 по сезону 1015.2 1008.3
З 4
{6}
50 км 3/3 1260 м
[Sc]
+3.8 +2.2 89 -1 -1 по сезону 1015.5 1008.6
З 4
{6}
50 км 3/0
[Ac trans]
+3.4 +2.0 91 -1 -1 тепло 1015.8 1008.9
З 4
{7}
50 км 3/1 840 м
[Sc Ac trans]
+3.3 +2.0 91 -1 -1 по сезону 1016.2 1009.3 +3.2 0.6
ЮЗ 3
{5}
45 км 5/4 840 м
[Sc Ac trans]
+2.6 +1.5 92 -2 -2 по сезону 1016.7 1009.8
ЮЗ 3
{6}
25 км 5/4 750 м
[Cu Sc Ac trans]
+3.9 +2.3 89 0 0 тепло 1016.8 1010.0
ЮЗ 3
{6}
25 км 3/3 1000 м
[Sc]
+4.7 +2.4 85 +1 +2 по сезону 1017.5 1010.7
ЮЗ 4
{6}
30 км 1/1 1410 м
[Sc]
+5.4 +2.8 83 +1 +2 по сезону 1018.1 1011.3
ЮЗ 4
{6}
30 км 1/1 1410 м
[Sc]
+6.0 +2.6 79 +2 +4 тепло 1018.3 1011.5
ЮЗ 4
{6}
30 км 3/3 900 м
[Cu hum]
+7.0 +2.7 74 +4 +5 по сезону 1018.3 1011.5
З 3
{6}
30 км 3/3 900 м
[Cu hum]
+7.3 +1.8 68 +5 +6 тепло 1018.2 1011.4
З 3
{6}
30 км 4/4 1380 м
[Cu hum]
+6.4 +2.0 73 +3 +4 тепло 1018.2 1011.4
З 3
{6}
45 км 5/5 1500 м
[Cu hum]
+5.9 +1.0 71 +3 +3 по сезону 1018.4 1011.6
З 1
{3}
45 км 4/4 1000 м
[Cu Sc Ci fib]
+5.1 +0.8 74 +4 +4 тепло 1018.7 1011.8
Ю 2
{2}
45 км 3/3 1000 м
[Cu Sc Ci fib]
+3.1 +0.2 81 0 0 тепло 1019.0 1012.1
Ю 3
{6}
45 км 1/1 1000 м
[Cu Sc Ci fib]
+2.0 -0.6 83 -2 -2 прохладно 1019.1 1012.2 +7.5
Ю 2
{3}
20 км ясно +1.1 -0.9 86 -2 -2 по сезону 1019.3 1012.4
Ю 2
{3}
20 км ясно +1.1 -0.9 86 -2 -2 по сезону 1019.5 1012.6
Ю 2
{3}
20 км ясно +0.9 -1.0 87 -3 -3 прохладно 1019.7 1012.7
Местоположение метеостанции Брюссель (Бельгия): широта 50.90 долгота 4.53 высота над уровнем моря 58 м.
В архиве по умолчанию представлена погода в Брюсселе за последнюю неделю. Архивные данные за месяц целиком и за предыдущие месяцы, начиная с января 2011 года, Вы можете получить, выбрав интересующий диапазон дат из раскрывающегося списка и нажав кнопку "Найти!".
*Определитесь, кто Вы:
Внимание! Время в таблицах - всемирное. Для получения местного времени необходимо прибавить поправку, которая равна 1 ч.
Смотрите также архив погоды в соседних городах и на ближайших метеорологических станциях:
Партнеры нашего сайта:      
Пояснения к столбцам:
  • Ветер - указаны скорость ветра в м/с - средняя за 10 мин, порывы в срок и между сроками (в фигурных скобках) и направление, откуда дует ветер: С - северный,
  • СВ - северо-восточный, В - восточный, ЮВ - юго-восточный, Ю - южный, ЮЗ - юго-западный, З - западный, СЗ - северо-западный.
  • Видимость - горизонтальная дальность видимости в метрах или километрах. При видимости от 1 до 10 км при отсутствии осадков обычно наблюдается дымка, при ухудшении видимости до 1 км и менее - туман. В сухую погоду видимость может ухудшаться дымом, пылью или мглою.
  • Явления - указаны атмосферные явления, наблюдавшиеся в срок или в последний час перед сроком; фигурными скобками обозначены явления, наблюдавшиеся между сроками (за 1-3 часа до срока); квадратными скобками обозначены град или гололедные отложения с указанием их диаметра в мм.
  • Облачность - указаны через наклонную черту общая и нижняя облачность в баллах и высота нижней границы облаков в метрах; квадратными скобками обозначены формы облаков: Ci - перистые, Cs - перисто-слоистые, Cc - перисто-кучевые, Ac - высококучевые, As - высокослоистые, Sc - слоисто-кучевые, Ns - слоисто-дождевые, Cu - кучевые, Cb - кучево-дождевые. Подробнее классификацию облаков см. в Атласе облаков (PDF).
  • T - Температура воздуха - температура, измеренная на высоте 2 м над землей.
  • Td - Температура точки росы - температура, при понижении до которой содержащийся в воздухе водяной пар достигнет насыщения.
  • f - Относительная влажность воздуха - влажноcть воздуха, измеренная на высоте 2 м над землей.
  • Te - Эффективная температура - температура, которую ощущает одетый по сезону человек в тени. Характеристика душности погоды. При расчете учитывается влияние влажности воздуха и скорости ветра на теплоощущения человека.
  • Tes - Эффективная температура на солнце - температура, которую ощущает человек, с поправкой на солнечный нагрев. Характеристика знойности погоды. Зависит от высоты солнца над горизонтом, облачности и скорости ветра. Ночью, в пасмурную погоду, а также при ветре 12 м/с и более поправка равна нулю.
  • P - Атмосферное давление - приведенное к уровню моря атмосферное давление.
  • Po - Атмосферное давление - измеренное на уровне метеостанции атмосферное давление.
  • Tmin - Минимальная температура - минимум температуры воздуха на высоте 2 м над землей.
  • Tmax - Максимальная температура - максимум температуры воздуха на высоте 2 м над землей.
  • R - Количество осадков - Количество выпавших осадков за период времени, мм. При наведении курсора мыши на число - период времени, за который выпало указанное количество осадков.
  • R24 - Количество осадков - Количество выпавших осадков за 24 часа, мм.
  • S - Снежный покров - Высота снежного покрова, см. При наведении курсора мыши на число - состояние снежного покрова и степень покрытия местности в баллах.